Regional Weather Roundup
Issued by NWS Charleston, SC

Current Version | Previous Version | Graphics & Text | Print | Product List | Glossary On
Versions: 1 2 3 4 5 6 7 8 9 10 11 12 13 14 15 16 17 18 19 20 21 22 23 24 25 26 27 28 29 30 31 32 33 34 35 36 37 38 39 40 41 42 43 44 45 46 47 48 49 50
000
ASUS42 KCHS 041511
RWRCHS

REGIONAL WEATHER ROUNDUP
NATIONAL WEATHER SERVICE CHARLESTON SC
1000 AM EST WED MAR 04 2015

NOTE: "FAIR" INDICATES FEW OR NO CLOUDS BELOW 12,000 FEET WITH NO
SIGNIFICANT WEATHER AND/OR OBSTRUCTIONS TO VISIBILITY.

NOT ALL STATIONS ARE QUALITY CONTROLLED BY THE NATIONAL
WEATHER SERVICE. USE DATA WITH CAUTION...ESPECIALLY
DEWPOINT OBSERVATIONS.

SCZ027-030-031-034>040-042>050-041600-
...SOUTHEAST SOUTH CAROLINA...

CITY           SKY/WX    TMP DP  RH WIND       PRES   REMARKS
N CHARLESTON   PTSUNNY   71  63  75 S17       30.12S
WATERFRONT PRK   N/A     63 N/A N/A SW12        N/A
MOUNT PLEASANT CLOUDY    68  64  88 S15G21    30.13S
PINOPOLIS      NOT AVBL
MONCKS CORNER  FAIR      73  66  78 SW13      30.09F HAZE
SUMMERVILLE    FAIR      73  66  78 S9G18     30.11S
BEAUFORT MCAS  PTSUNNY   70  64  81 S9G18     30.12S
BEAUFORT ARPT  PTSUNNY   70  66  88 SW5       30.12S
HILTON HEAD IS MOSUNNY   64  63  94 S9        30.14S
WALTERBORO     CLOUDY    72  68  88 SW10      30.11S
ALLENDALE      CLOUDY    70  64  83 CALM      30.09S

...SOUTHERN MIDLANDS AND PEE DEE...

CITY           SKY/WX    TMP DP  RH WIND       PRES   REMARKS
GEORGETOWN     NOT AVBL
KINGSTREE      NOT AVBL
ORANGEBURG     PTSUNNY   63  61  93 SW13      30.09S
BARNWELL       FAIR      68  68 100 SW10      30.10S
AIKEN          PTSUNNY   63  63 100 SW8G16    30.11S
MANNING        FAIR     N/A N/A N/A S8        30.09S
COLUMBIA       CLOUDY    66  61  84 SW6       30.06F
SUMTER         PTSUNNY   63  62  99 SW12      30.05S
FLORENCE       CLOUDY    64  60  87 SW13      30.07S
MYRTLE BEACH   MOSUNNY   70  63  78 S16       30.12R
N MYRTLE BEACH FOG       58  57  97 SW16      30.09F VSB 1/2

$$

GAZ063-065-086>088-099>101-113>116-118-119-134>141-150-041600-
...SOUTHEAST GEORGIA...

CITY           SKY/WX    TMP DP  RH WIND       PRES   REMARKS
SAVANNAH ARPT  PTSUNNY   74  63  68 SW10      30.12S
HUNTER AAF     SUNNY     73  66  80 S13       30.11S
FORT STEWART   MOSUNNY   74  63  69 S9        30.11S
STATESBORO     SUNNY     72  67  82 SW12      30.11S
SYLVANIA       SUNNY     73  64  75 SW8G17    30.11S
CLAXTON        FAIR      72  63  73 SW8       30.12S

...CSRA...CENTRAL AND FAR SOUTHEAST GEORGIA...

CITY           SKY/WX    TMP DP  RH WIND       PRES   REMARKS
THOMSON        PTSUNNY   65  65 100 SW10G20   30.12R
AUGUSTA-BUSH   CLOUDY    59  58  96 SE3       30.08F FOG
AUGUSTA-DANIEL MOSUNNY   61  59  93 S3        30.09S
SWAINSBORO     FAIR      73  54  49 SW8       30.11
VIDALIA        PTSUNNY   72  63  73 SW8G16    30.12S
EASTMAN        CLOUDY    65  65 100 SW8G16    30.15S
HAZLEHURST     FAIR      74  65  73 SW5       30.12S
ALMA           SUNNY     73  62  68 S10       30.12F
WAYCROSS       MOSUNNY   76  67  71 SW12      30.14S
JESUP          FAIR      77  66  69 SW12      30.14S
BAXLEY         FAIR      73  63  68 SW9       30.13R
BRUNSWICK      MOSUNNY   72  64  78 SW14G20   30.16S
SAINT SIMONS   MOSUNNY   71  65  81 S7        30.16S

$$

SCZ027-028-034-036>038-045-046-048>050-GAZ119-141-041600-
...LAKE AND SUPPLEMENTAL COASTAL OBSERVATIONS...

STATION/POSITION TIME  TEMP    WIND        PRES    WAVE   SWELL
                       AIR SEA DIR/SP/G            HT/PER HT/PER/DIR
                 (UTC) (F)     (DEG/KT/KT) (MB)    (FT/S) (FT/S/D)
UPR LAKE MARION  NOT AVBL
WINYAH BAY       NOT AVBL
LAKE MURRAY      1400   53     190/  3/  4 1017.6S
ACE BASIN NERRS  NOT AVBL
FORT PULASKI     1400   59 50  200/  8/ 11 1020.9R
SAPELO ISLAND    1400   65     190/  6     1021.0R

$$

ANZ835-935-AMZ111-154-330-350-352-354-370-450-454-472-041600-
...C-MAN AND BUOY OBSERVATIONS...

STATION/POSITION TIME  TEMP    WIND        PRES    WAVE   SWELL
                       AIR SEA DIR/SP/G            HT/PER HT/PER/DIR
                 (UTC) (F)     (DEG/KT/KT) (MB)    (FT/S) (FT/S/D)
BUOY 41004       1450   69 69  210/ 14/ 16 1020.1F   6/ 6   3/ 9
BUOY 41008       1450   56 54  190/  8/ 10 1021.2R
FOLLY BEACH CMAN 1500   55     220/  9/ 11 1020.7F
CAPERS NEARSHORE 1400   52     220/  8/ 10   N/A
FRIPP NEARSHORE  1400   52     210/  6/  8 1020.0R


STATION/POSITION TIME  TEMP    WIND        PRES    WAVE   SWELL
                       AIR SEA DIR/SP/G            HT/PER HT/PER/DIR
                 (UTC) (F)     (DEG/KT/KT) (MB)    (FT/S) (FT/S/D)
5E ST. MARYS GA  1421      55                N/A     2/ 9
FRYING PAN BUOY  1450   66 62  220/ 10/ 10 1020.5F   5/ 6   5/120/ 6
BUOY 41025       NOT AVBL
CAPE LOOKOUT NC  1500   62     220/ 12/ 15 1018.4F
BUOY 41002       1450   72 73  220/ 16/ 19 1024.0R   6/10   3/130/10
BUOY 41010       1420   74 75  160/ 12/ 14 1023.3R
ST AUGUSTINE FL  1500   60     130/  5/  5 1022.5F


$$



USA.gov is the U.S. government's official web portal to all federal, state and local government web resources and services.